Погода в Зеюко

Россия / Карачаево-Черкесская Республика     44°07′01″N   41°49′31″E
темп.,
°C
ветер,
м/с
пор.,
м/с
влажн.,
%
обл.,
%
осадки,
мм/ч
давл.,
гПа
погр.,
м
6 мая, чт
чт600:00+5ю22910 0.0 101618
03:00+4ю22870 0.0 101521
06:00+5ю33794 0.0 101547
09:00+13в015849 0.0 1012417
12:00+17с32535 0.0 10101025
15:00+17с335780 0.0 10111178
18:00+14ссв3476100 0.0 1012224
21:00+10ю1185100 0.0 101410
7 мая, пт
пт700:00+9ю338998 0.0 101430
03:00+9ююз348191 0.1 101553
06:00+8ююз33787 0.3 101658
09:00+14с22715 0.4 1016545
12:00+16ссв43645 0.6 10161193
15:00+15с4471100 3.1 10171169
18:00+13ссв2480100 0.4 1018174
21:00+11в118844 0.6 101911
8 мая, сб
сб800:00+9ююз22925 0.0 101911
03:00+8ю22935 0.0 101823
06:00+8ю348684 0.0 101764
09:00+15ю11619 0.0 1015381
12:00+19ссв3257100 0.0 10141036
15:00+19ссв3359100 0.0 10121104
18:00+17ссв34796 0.0 1012159
21:00+12ююз22895 0.0 101317
9 мая, вс
вс900:00+10ю448064 0.0 101247
03:00+8ю45615 0.0 101165
06:00+10ю4464100 0.0 100856
09:00+14ссз666693 0.0 1009654
12:00+12ю2484100 0.6 1010272
15:00+8сз51090100 0.8 1015469
18:00+3зсз71397100 1.9 1021861
21:00+2юз3999100 5.1 1025685
10 мая, пн
пн1000:00+2зюз3887100 0.6 1026570
03:00+2ююз359187 0.6 1025110
06:00+1ююз35875 0.0 1026117
09:00+6зсз686776 0.0 10231541
12:00+8сз786597 0.6 10211419
15:00+8сз785984 0.8 10201368
18:00+4зюз1392100 0.9 1023610
21:00+3ююв1198100 3.3 1022465